Regional Weather Roundup
Issued by NWS Charleston, SC

Current Version | Previous Version | Graphics & Text | Print | Product List | Glossary On
Versions: 1 2 3 4 5 6 7 8 9 10 11 12 13 14 15 16 17 18 19 20 21 22 23 24 25 26 27 28 29 30 31 32 33 34 35 36 37 38 39 40 41 42 43 44 45 46 47 48 49 50
000 ASUS42 KCHS 280528 RWRCHS REGIONAL WEATHER ROUNDUP NATIONAL WEATHER SERVICE CHARLESTON SC 100 AM EDT THU JUL 28 2016 NOTE: "FAIR" INDICATES FEW OR NO CLOUDS BELOW 12,000 FEET WITH NO SIGNIFICANT WEATHER AND/OR OBSTRUCTIONS TO VISIBILITY. NOT ALL STATIONS ARE QUALITY CONTROLLED. USE DATA WITH CAUTION... ESPECIALLY DEWPOINT OBSERVATIONS. SCZ027-030-031-034>040-042>050-280600- ...SOUTHEAST SOUTH CAROLINA... CITY SKY/WX TMP DP RH WIND PRES REMARKS N CHARLESTON CLEAR 83 78 85 SW7 29.99S HX 93 WATERFRONT PRK N/A 86 80 82 SW5 29.98S HX 101 MOUNT PLEASANT FAIR 84 79 84 CALM 29.99F HX 96 JOHNS ISLAND FAIR 86 81 84 S8 30.00S HX 102 PINOPOLIS N/A 82 79 89 S5 29.92S HX 93 MONCKS CORNER FAIR 79 75 89 SW5 29.99S SUMMERVILLE NOT AVBL BEAUFORT MCAS CLEAR 84 77 79 SW5 30.00S HX 94 BEAUFORT ARPT FAIR 84 77 79 SW5 30.00S HX 94 HILTON HEAD IS PTCLDY 86 79 79 VRB6G12 30.02S HX 99 WALTERBORO CLEAR 82 82 100 SW5 30.01S HX 97 ALLENDALE FAIR 81 73 78 CALM 30.00S ...SOUTHERN MIDLANDS AND PEE DEE... CITY SKY/WX TMP DP RH WIND PRES REMARKS GEORGETOWN NOT AVBL KINGSTREE FAIR 79 73 83 CALM 29.97S ORANGEBURG CLEAR 80 73 79 SW6 29.99S BARNWELL NOT AVBL AIKEN FAIR 79 70 73 SW5 30.04S MANNING FAIR 82 73 74 CALM 29.99R COLUMBIA CLEAR 84 69 60 SW8 29.97S SUMTER CLEAR 82 72 69 S7 29.96R FLORENCE CLEAR 83 74 74 SW7 29.96S MYRTLE BEACH CLEAR 84 72 65 SW7 29.99S N MYRTLE BEACH CLEAR 84 80 88 SW12 29.96F HX 97 $$ GAZ063-065-086>088-099>101-113>116-118-119-134>141-150-280600- ...SOUTHEAST GEORGIA... CITY SKY/WX TMP DP RH WIND PRES REMARKS SAVANNAH ARPT CLEAR 83 74 74 S8 30.02S HUNTER AAF CLEAR 83 78 87 S7 30.00S HX 93 FORT STEWART CLEAR 81 72 74 CALM 30.00S STATESBORO CLEAR 82 73 74 CALM 30.02S SYLVANIA NOT AVBL CLAXTON FAIR 77 75 93 CALM 30.02S ...CSRA...CENTRAL AND FAR SOUTHEAST GEORGIA... CITY SKY/WX TMP DP RH WIND PRES REMARKS THOMSON NOT AVBL AUGUSTA-BUSH CLEAR 83 70 64 SW6 29.99S AUGUSTA-DANIEL CLEAR 86 69 56 VRB5 30.02R HX 90 SWAINSBORO FAIR 81 70 69 W3 30.03S VIDALIA CLEAR 81 70 69 CALM 30.03S EASTMAN FAIR 81 62 52 CALM 30.06S HAZLEHURST FAIR 82 73 75 CALM 30.03R ALMA PTCLDY 78 71 79 CALM 30.04R WAYCROSS PTCLDY 84 76 76 W5 30.04S HX 92 JESUP FAIR 79 75 89 CALM 30.04R BAXLEY FAIR 79 75 89 CALM 30.04R BRUNSWICK CLEAR 82 79 89 SW6 30.05S HX 93 SAINT SIMONS CLEAR 84 75 74 SW8 30.04R HX 92 $$ SCZ027-028-034-036>038-045-046-048>050-GAZ119-141-280600- ...LAKE AND SUPPLEMENTAL COASTAL OBSERVATIONS... STATION/POSITION TIME TEMP WIND PRES WAVE SWELL AIR SEA DIR/SP/G HT/PER HT/PER/DIR (UTC) (F) (DEG/KT/KT) (MB) (FT/S) (FT/S/D) WINYAH BAY 0400 83 230/ 6 1015.0 LAKE MURRAY 0500 87 260/ 8/ 12 1014.6R ACE BASIN NERRS 0400 84 CALM 1016.0S FORT PULASKI 0500 84 88 210/ 7/ 9 1016.9R SAPELO ISLAND 0500 84 200/ 10 1017.0S $$ ANZ835-935-AMZ111-154-330-350-352-354-370-450-454-472-280600- ...C-MAN AND BUOY OBSERVATIONS... STATION/POSITION TIME TEMP WIND PRES WAVE SWELL AIR SEA DIR/SP/G HT/PER HT/PER/DIR (UTC) (F) (DEG/KT/KT) (MB) (FT/S) (FT/S/D) BUOY 41004 0450 86 86 220/ 16/ 17 1015.4S 3/ 5 2/170/ 8 BUOY 41008 0450 86 87 190/ 17/ 21 1016.4S 3/ 4 FOLLY BEACH CMAN 0500 86 220/ 13/ 16 1016.1R CAPERS NEARSHORE 0508 85 84 230/ 16/ 19 1015.3F FRIPP NEARSHORE 0508 87 87 220/ 19/ 23 1015.5R STATION/POSITION TIME TEMP WIND PRES WAVE SWELL AIR SEA DIR/SP/G HT/PER HT/PER/DIR (UTC) (F) (DEG/KT/KT) (MB) (FT/S) (FT/S/D) 5E ST. MARYS GA 0501 86 N/A 3/ 4 FRYING PAN BUOY 0500 85 85 220/ 16/ 17 1014.6F BUOY 41025 0450 83 84 250/ 19/ 23 1012.9F 3/ 4 2/180/ 7 CAPE LOOKOUT NC 0500 80 240/ 10/ 12 1012.6F BUOY 41002 0450 84 85 260/ 12/ 14 1016.5F 3/ 6 2/260/ 6 BUOY 41010 0420 85 87 170/ 10/ 12 1018.2F ST AUGUSTINE FL 0500 81 86 210/ 5/ 7 1018.9R $$

USA.gov is the U.S. government's official web portal to all federal, state and local government web resources and services.